Солнцево

Россия / Московская область     55°38′57″N   37°23′27″E
темп.,
°C
ветер,
м/с
пор.,
м/с
влажн.,
%
обл.,
%
осадки,
мм/ч
давл.,
гПа
погр.,
м
14 апреля, ср
ср1400:00+13ююв414515 0.0 1021405
03:00+11ююв3126068 0.0 1020298
06:00+10ююв4147346 0.0 1020350
09:00+14ю487075 0.0 1020374
12:00+18ю475124 0.0 10191076
15:00+19ю4644100 0.0 10181911
18:00+18ююв353752 0.0 10171027
21:00+15юв224261 0.0 101823
15 апреля, чт
чт1500:00+13юв2246100 0.0 101725
03:00+11в225268 0.0 101716
06:00+10всв235676 0.0 101766
09:00+12всв3451100 0.0 1018254
12:00+15всв3542100 0.0 1018678
15:00+18всв4635100 0.0 10171527
18:00+16св6943100 0.0 10171455
21:00+11св71474100 0.0 1019611
16 апреля, пт
пт1600:00+9всв51279100 0.0 1020605
03:00+7св61181100 0.1 1021463
06:00+7всв51282100 0.0 1021514
09:00+8всв61074100 0.0 1022568
12:00+12всв6959100 0.0 1023792
15:00+14всв6952100 0.0 10221143
18:00+13всв61054100 0.0 10231139
21:00+11всв61160100 0.0 1024956
17 апреля, сб
сб1700:00+9всв51266100 0.0 1025608
03:00+7всв5126395 0.0 1026521
06:00+6всв51363100 0.0 1027491
09:00+8всв6105399 0.0 1028618
12:00+12всв6841100 0.0 10271075
15:00+14всв682868 0.0 10271365
18:00+13всв692936 0.0 10271350
21:00+10всв510415 0.0 1028972
18 апреля, вс
вс1800:00+8всв512500 0.0 1029629
03:00+6всв411560 0.0 1029436
06:00+5всв411615 0.0 1030401
09:00+8в5104723 0.0 1030709
12:00+12в56335 0.0 10301511
15:00+14в45305 0.0 10291917
18:00+14всв55349 0.0 10291888
21:00+11в49455 0.0 1031725